Regional Weather Roundup
Issued by NWS Upton, NY

Current Version | Previous Version | Graphics & Text | Print | Product List | Glossary Off
Versions: 1 2 3 4 5 6 7 8 9 10 11 12 13 14 15 16 17 18 19 20 21 22 23 24 25 26 27 28 29 30 31 32 33 34 35 36 37 38 39 40 41 42 43 44 45 46

000
ASUS41 KOKX 020705
RWROKX
REGIONAL WEATHER ROUNDUP
NATIONAL WEATHER SERVICE NEW YORK NY
300 AM EDT THU OCT 02 2014

NOTE: "FAIR" INDICATES FEW OR NO CLOUDS BELOW 12,000 FEET WITH NO
SIGNIFICANT WEATHER AND/OR OBSTRUCTIONS TO VISIBILITY.

NYZ071-072-176-178-NJZ106-104-020800-
NEW YORK CITY METRO AREA


CITY           SKY/WX    TMP DP  RH WIND       PRES   REMARKS
CENTRAL PARK   CLOUDY    61  55  81 VRB6      30.12S
LAGUARDIA APRT CLOUDY    61  55  82 NE9       30.08S
KENNEDY INTL   CLOUDY    61  56  83 N8        30.09S
NEWARK/LIBERTY CLOUDY    60  58  92 N9        30.09S
BRNX BOT. GARD   N/A     59  54  82 N2        30.10R
TETERBORO      LGT RAIN  60  56  86 CALM      30.08S
$$

NYZ177-179-078>081-020800-
LONG ISLAND NEW YORK

CITY           SKY/WX    TMP DP  RH WIND       PRES   REMARKS
FARMINGDALE    CLOUDY    60  57  89 N9        30.07F
ISLIP          CLOUDY    59  56  89 NE13      30.04S
SHIRLEY        CLOUDY    59  57  93 N6        30.07S
WESTHAMPTON    CLOUDY    60  56  86 N9G20     30.07S
MONTAUK POINT    N/A     60  58  92 N10G18    30.06S
$$

NYZ052-065-067-020800-
HUDSON VALLEY

CITY           SKY/WX    TMP DP  RH WIND       PRES   REMARKS
WHITE PLAINS   CLOUDY    58  54  86 N6        30.08F
NEWBURGH       NOT AVBL
MONTGOMERY     CLOUDY    59  57  93 CALM      30.10F
POUGHKEEPSIE   CLOUDY    60  57  89 CALM      30.09F
ALBANY         MOCLDY    59  56  89 N3        30.12F
$$

NJZ001-105-106-008-010-013-015-019>022-104-020800-
NEW JERSEY

CITY           SKY/WX    TMP DP  RH WIND       PRES   REMARKS
NEWARK/LIBERTY CLOUDY    60  58  92 N9        30.09S
TETERBORO      LGT RAIN  60  56  86 CALM      30.08S
CALDWELL       CLOUDY    59  56  89 CALM      30.10S
MORRISTOWN     CLOUDY    63  57  82 CALM      30.10S
SOMERVILLE     CLOUDY    62  56  80 CALM      30.08F
LINDEN         CLOUDY    64  61  89 NE7       30.10F
SUSSEX         LGT RAIN  61  57  87 NE8       30.11S FOG
ANDOVER          N/A     58  57  97 NE3       30.11S
TRENTON        CLOUDY    61  56  83 NE6       30.08S
MILLVILLE      CLEAR     57  55  93 N3        30.07S
ATLANTIC CITY  PTCLDY    59  57  93 N8        30.06F
WRIGHTSTOWN    CLOUDY    61  58  92 N9        30.05F
TOMS RIVER     CLOUDY    61  57  88 CALM      30.07F
BELMAR         CLOUDY    61  55  82 N6        30.07F
$$

PAZ047>061-062-071-020800-
EASTERN PENNSYLVANIA

CITY           SKY/WX    TMP DP  RH WIND       PRES   REMARKS
PHILADELPHIA   CLOUDY    65  56  72 NE8       30.08F
ALLENTOWN      CLOUDY    60  56  86 N5        30.10S
SCRANTON       CLOUDY    57  54  89 CALM      30.11F
$$

CTZ002-004>006-009-010-012-RIZ004-006-007-MAZ004-011-015-020800-
SOUTHERN NEW ENGLAND
 IN CT

CITY           SKY/WX    TMP DP  RH WIND       PRES   REMARKS
BRADLEY INTL   LGT RAIN  58  55  90 N8        30.10S FOG
HARTFORD       CLOUDY    58  55  90 N9        30.09F
DANBURY        CLOUDY    58  54  86 NE5       30.10F
WTRBRY/OXFORD  CLOUDY    55  52  88 NE7G17    30.10F
BRIDGEPORT     CLOUDY    59  56  89 NE10      30.08S
MERIDEN        CLOUDY    58  55  90 N7        30.09S
NEW HAVEN      CLOUDY    61  56  83 N8        30.08S
CHESTER        CLOUDY    57  55  94 NE7       30.08S
GROTON         LGT RAIN  57  56  96 N10       30.05F
WILLIMANTIC    CLOUDY    58  54  86 N8        30.09S

 IN RI

CITY           SKY/WX    TMP DP  RH WIND       PRES   REMARKS
PROVIDENCE     RAIN      57  56  96 N15       30.07F FOG
BLOCK ISLAND   CLOUDY    59  55  88 NE15G21   30.04S
WESTERLY       RAIN      58  56  93 N7        30.06S FOG

 IN MA

CITY           SKY/WX    TMP DP  RH WIND       PRES   REMARKS
BOSTON         LGT RAIN  56  55  97 NE17      30.11S FOG
WORCESTER      LGT RAIN  53  52  96 NE10G20   30.11S
WESTFIELD      CLOUDY    57  55  93 N7        30.11S
PROVINCETOWN   CLOUDY    59  55  88 NE16G23   30.07S
NANTUCKET      CLOUDY    61  59  93 NE15      29.98S
$$

ANZ330-335-338-340-345-350-353-355-020800-
COASTAL MARINE OBSERVATIONS


STATION/POSITION TIME  SKY/WX   TEMP    WIND        PRES    VSBY  WAVE
                                AIR SEA DIR/SP/G                  HT/PER
                 (UTC)          (F)     (DEG/KT/KT) (MB)    (MI)  (FT/S)
NY HARB ENTRANCE NOT AVBL
4S FIRE IS       0700               67                N/A           4/ 7
20S FIRE ISLAND  0700            62 67   20/ 17/ 21 1016.9          6/ 7
23SW MTP         0700                                 N/A           7/ 7
HUDSON CANYON    0700            65 69   20/ 21/ 27 1014.7          7/ 7
EXECUTION ROCKS  0700            62 68   10/ 12/ 16   N/A
WESTERN LI SOUND 0700            62      40/ 12/ 14   N/A           2/ 3
CENTRAL LI SOUND 0700            60 68   40/ 16/ 19   N/A           2/ 4
EASTERN LI SOUND 0600            60 66   30/ 14/ 17   N/A
ROBBINS REEF     0700            60      50/ 11/ 12 1017.6
$$


>>>>>>>>>>>>>>>>>>>>>>>>>>>> KEY <<<<<<<<<<<<<<<<<<<<<<<<<<<
>                                                          <
>     SKY/WX - SKY CONDITION/PRESENT WEATHER               <
>     TMP    - TEMPERATURE IN FAHRENHEIT                   <
>     DP     - DEWPOINT IN FAHRENHEIT                      <
>     RH     - RELATIVE HUMIDITY IN PERCENT                <
>     WIND   - DIRECTION AND SPEED IN MPH                  <
>     PRES   - MEAN SEA LEVEL PRESSURE IN INCHES OF HG     <
>     WCI    - WIND CHILL INDEX                            <
>     VSB    - VISIBILITY IN MILES                         <
>     HX     - HEAT INDEX                                  <
>     TC     - TEMPERATURE IN CELSIUS                      <
>     VRB    - VARIABLE WIND DIRECTION                     <
>                                                          <
>>>>>>>>>>>>>>>>>>>>>>>>>>>> KEY <<<<<<<<<<<<<<<<<<<<<<<<<<<




USA.gov is the U.S. government's official web portal to all federal, state and local government web resources and services.